This is the latest recevied weather packets stored in our database for station/object KE2A-13. If no packets are shown the sender has not sent any weather packets the latest 10 day(s).
| Time | Temp. | Humidity | Pressure | Rain* | Wind** | Luminosity | Snow |
|---|---|---|---|---|---|---|---|
| 1777673700 | 16.67° C | 49% | 1010 hPa | - | - | - | - |
| 1777672800 | 17.22° C | 41% | 1010 hPa | - | - | - | - |
| 1777671900 | 17.22° C | 39% | 1009.8 hPa | - | - | - | - |
| 1777671000 | 17.22° C | 39% | 1009.8 hPa | - | - | - | - |
| 1777670100 | 17.22° C | 38% | 1009.7 hPa | - | - | - | - |
| 1777669200 | 16.67° C | 39% | 1009.8 hPa | - | - | - | - |
| 1777668300 | 16.67° C | 39% | 1009.9 hPa | - | - | - | - |
| 1777667400 | 16.67° C | 37% | 1010 hPa | - | - | - | - |
| 1777666500 | 17.22° C | 38% | 1010 hPa | - | - | - | - |
| 1777665600 | 17.22° C | 38% | 1010.1 hPa | - | - | - | - |
| 1777664700 | 17.78° C | 37% | 1010.1 hPa | - | - | - | - |
| 1777663800 | 17.78° C | 36% | 1010.2 hPa | - | - | - | - |
| 1777662900 | 18.89° C | 35% | 1010.3 hPa | - | - | - | - |
| 1777662000 | 18.33° C | 36% | 1010.5 hPa | - | - | - | - |
| 1777661100 | 17.78° C | 35% | 1010.8 hPa | - | - | - | - |
| 1777660200 | 17.78° C | 38% | 1011 hPa | - | - | - | - |
| 1777659300 | 17.78° C | 38% | 1011.1 hPa | - | - | - | - |
| 1777658401 | 17.22° C | 41% | 1011 hPa | - | - | - | - |
| 1777657500 | 17.22° C | 37% | 1011.2 hPa | - | - | - | - |
| 1777656600 | 17.22° C | 40% | 1011.3 hPa | - | - | - | - |
| 1777655700 | 16.67° C | 38% | 1011.4 hPa | - | - | - | - |
| 1777654800 | 16.67° C | 39% | 1011.8 hPa | - | - | - | - |
| 1777653900 | 16.11° C | 39% | 1011.9 hPa | - | - | - | - |
| 1777653000 | 16.11° C | 38% | 1012.1 hPa | - | - | - | - |
| 1777652100 | 15.56° C | 40% | 1012.1 hPa | - | - | - | - |
* Rain since midnight (hover to see other rain measurements)
** Current wind speed in m/s (hover to see current wind gust speed)